Content
SEND FEEDBACK

Daily
Averages
Monthly
Summary
United States of America

OKMULGEE, OKLAHOMA


Home > North America > United States > Oklahoma
Elevation: 217 meters     Latitude: 35 39N     Longitude: 095 56W

WEATHER
 
SELECT A DAY
Number of Records: 334,164;   Date Range: 3/28/01 - 10/19/14
 
SHARE

PRINT THIS DATA

[ ← Previous Day ]
WEATHER ALMANAC - 31 JANUARY, 2013
[ Next Day → ]
[ °F ]   °C
Weather ElementAverageHighLow
Temperature0.8 °C14.1 °C (1:35 pm) (9:55 am)
Dewpoint-5.8 °C-1.8 °C (2:35 pm) (7:00 pm)
Humidity65.5 %96 % (1:15 am)25 % (1:35 pm)
Barometer1007.5 hPa1031.2 hPa (9:35 pm) (7:00 pm)
Wind Speed19.2 km/h48.1 km/h (4:15 pm)
Wind Gust57.5 km/h (4:15 pm)
Weather ElementAverage
Visibility16.1 km
Wind DirectionNNE (39.3 °)

Weather ElementTotal
Precipitation---
Heating Degree Days20.2 (Base 18.3)
Averaged from 70 records on 31 January, 2013
WEATHER CONDITIONS BREAKOUT
WIND DIRECTION BREAKOUT
WEATHER BY HOUR - 31 JANUARY, 2013
[ °F ]   °C
Local TimeTemperatureDewpointHumidityBarometerVisibilityWind DirectionWind SpeedGust SpeedPrecipitationEventsConditions
12:35 AM-4.3 °C-5.3 °C93 %1017.9 hPa16.1 kmNorth
12:55 AM-4.1 °C-5.4 °C91 %1017.9 hPa16.1 kmNorth
1:15 AM-4.8 °C-5.3 °C96 %1017.9 hPa16.1 kmNorth
1:35 AM-4.6 °C-5.3 °C95 %1017.6 hPa16.1 kmNorth
1:55 AM-4 °C-5 °C93 %1017.3 hPa16.1 kmNorth
2:15 AM-4.1 °C-5.2 °C92 %1017.6 hPa16.1 kmNorth
2:35 AM-4.5 °C-5.7 °C91 %1017.3 hPa16.1 kmNorth
2:55 AM-4.6 °C-5.4 °C94 %1017.3 hPa16.1 kmNorth
3:15 AM-4 °C-5.8 °C87 %1017.3 hPa16.1 kmNorth
3:35 AM-4.8 °C-5.8 °C93 %1017.3 hPa16.1 kmNorth
3:55 AM-4.3 °C-5.6 °C91 %1017.3 hPa16.1 kmNorth
4:15 AM-4.1 °C-5.8 °C88 %1016.9 hPa16.1 kmNorth
4:35 AM-4.9 °C-6 °C92 %1016.9 hPa16.1 kmNorth
4:55 AM-4 °C-5.8 °C87 %1016.9 hPa16.1 kmNorth
5:15 AM-3.1 °C-5.8 °C82 %1016.9 hPa16.1 kmNorth
5:35 AM-3.4 °C-6.1 °C82 %1017.3 hPa16.1 kmNorth
5:55 AM-3 °C-5.9 °C81 %1017.3 hPa16.1 kmNorth
6:15 AM-3.5 °C-5.8 °C84 %1017.3 hPa16.1 kmNorth
6:55 AM-4.2 °C-6 °C87 %1017.6 hPa16.1 kmNorth
7:15 AM-4.9 °C-6.5 °C89 %1017.9 hPa16.1 kmNorth
7:35 AM-4.9 °C-6.5 °C89 %1018.3 hPa16.1 kmNorth
7:55 AM-3.8 °C-5.9 °C86 %1018.6 hPa16.1 kmNorth
8:15 AM-2.4 °C-4.6 °C85 %1018.6 hPaNorth
8:35 AM-1.2 °C-4.5 °C79 %1019 hPa16.1 kmNorthClear
8:55 AM-0.2 °C-3.9 °C76 %1019.3 hPa16.1 kmNorthClear
9:15 AM1.6 °C-3.7 °C68 %1019 hPa16.1 kmNorthClear
9:35 AM3.5 °C-3.7 °C60 %1019.3 hPa16.1 kmCalmClear
9:55 AM-17.8 °C-17.8 °CNorth
10:15 AM6.3 °C-3.4 °C50 %1019.3 hPaSW (220°)5.6 km/h
10:35 AM8.4 °C-3.4 °C44 %1019.6 hPa16.1 kmCalm
10:55 AM10.1 °C-3.6 °C38 %1019.6 hPa16.1 kmCalm
11:15 AM11.5 °C-6 °C29 %1020.3 hPa16.1 kmWNW (300°)11.1 km/hClear
11:35 AM11.4 °C-4.8 °C32 %1020 hPa16.1 kmNNW (340°)13 km/hClear
11:55 AM11.1 °C-5.9 °C30 %1020 hPa16.1 kmNW (310°)7.4 km/hClear
12:15 PM11.7 °C-5.8 °C29 %1019.6 hPa16.1 kmNW (320°)7.4 km/hClear
12:35 PM11.6 °C-7.2 °C26 %1019.3 hPa16.1 kmCalmClear
12:55 PM12.1 °C-6.7 °C27 %1019 hPa16.1 kmCalmClear
1:15 PM13.3 °C-5.7 °C27 %1019 hPa16.1 kmNNE (20°)13 km/hClear
1:35 PM14.1 °C-5.8 °C25 %1019.3 hPa16.1 kmNorth (10°)18.5 km/hClear
1:55 PM11.6 °C-2.3 °C38 %1019.3 hPa16.1 kmNNE (20°)33.3 km/h40.7 km/hClear
2:15 PM11.5 °C-2.1 °C39 %1019.6 hPa16.1 kmNorth (10°)31.5 km/h40.7 km/hClear
2:35 PM10.9 °C-1.8 °C41 %1020 hPa16.1 kmNNE (20°)33.3 km/h42.6 km/hClear
2:55 PM10.2 °C-2.6 °C41 %1020.3 hPa16.1 kmNNE (20°)33.3 km/h44.4 km/hClear
3:15 PM9 °C-1.9 °C47 %1021 hPa16.1 kmNorth (10°)37 km/h51.8 km/hClear
3:35 PM7.7 °C-3.2 °C46 %1021.7 hPa16.1 kmNorth (10°)40.7 km/h50.1 km/hClear
3:55 PM7.2 °C-3.1 °C48 %1022 hPa16.1 kmNorth (10°)38.9 km/h48.1 km/hClear
4:15 PM6 °C-3.1 °C52 %1022.7 hPa16.1 kmNorth (10°)48.1 km/h57.5 km/hClear
4:35 PM4 °C-4 °C56 %1023.4 hPa16.1 kmNNE (20°)38.9 km/h50.1 km/hClear
4:55 PM4.1 °C-3.9 °C56 %1023.7 hPa16.1 kmNNE (20°)35.2 km/h42.6 km/hClear
5:15 PM3.1 °C-4.4 °C58 %1024.7 hPa16.1 kmNorth (10°)31.5 km/h46.3 km/hClear
5:35 PM2.2 °C-4.5 °C62 %1025.4 hPa16.1 kmNorth (10°)31.5 km/h40.7 km/hClear
5:55 PM1.2 °C-4.5 °C66 %1026.1 hPa16.1 kmNorth (10°)25.9 km/h40.7 km/hClear
6:15 PM0.5 °C-4.6 °C69 %1026.4 hPa16.1 kmNorth (10°)29.6 km/h35.2 km/hClear
6:35 PM-0.1 °C-6.4 °C63 %1027.4 hPa16.1 kmNorth (360°)25.9 km/hClear
6:55 PM-1 °C-6.9 °C65 %1028.1 hPa16.1 kmNorth (360°)22.2 km/h31.5 km/hClear
7:15 PM-1 °C-6.3 °C68 %1028.4 hPa16.1 kmNorth (10°)14.8 km/hClear
7:35 PM-1.5 °C-5.8 °C73 %1029.1 hPa16.1 kmNorth (10°)11.1 km/hClear
7:55 PM-2.1 °C-5.8 °C76 %1029.5 hPa16.1 kmNorth (10°)11.1 km/hClear
8:15 PM-2.1 °C-6.6 °C72 %1029.8 hPa16.1 kmNorth (10°)11.1 km/hClear
8:35 PM-2.5 °C-7 °C72 %1030.1 hPa16.1 kmNorth (10°)11.1 km/hClear
8:55 PM-2.7 °C-7.6 °C69 %1030.1 hPa16.1 kmNorth (10°)16.7 km/hClear
9:15 PM-2.6 °C-9 °C62 %1030.5 hPa16.1 kmNNE (20°)14.8 km/hClear
9:35 PM-3 °C-9.6 °C61 %1031.2 hPa16.1 kmNorth (10°)14.8 km/hClear
9:55 PM-3 °C-10.2 °C58 %1031.2 hPa16.1 kmNorth (10°)20.4 km/hClear
10:15 PM-3.1 °C-10.1 °C59 %1030.8 hPa16.1 kmNNE (20°)20.4 km/hClear
10:35 PM-3.4 °C-10.2 °C60 %1031.2 hPa16.1 kmNNE (20°)14.8 km/hClear
10:55 PM-3.6 °C-10.1 °C61 %1031.2 hPa16.1 kmNE (40°)11.1 km/hClear
11:15 PM-4 °C-9.6 °C66 %1030.5 hPa16.1 kmNE (50°)11.1 km/hClear
11:35 PM-4.2 °C-9.9 °C65 %1030.8 hPa16.1 kmNE (40°)13 km/hClear
11:55 PM-4.4 °C-10.4 °C63 %1030.1 hPa16.1 kmNE (50°)14.8 km/hClear
Hourly data recorded from KOKM, located 0 kilometers away from Okmulgee, Oklahoma







STORIES FROM OUR PARTNERS